Content
SEND FEEDBACK

Daily
Averages
Monthly
Summary
United States of America

SERRANO, CALIFORNIA


Home > North America > United States > California
Elevation: 1200 feet     Latitude: 35 22N     Longitude: 120 38W

WEATHER
 
SELECT A DAY
Number of Records: 196,463;   Date Range: 1/1/95 - 11/25/14
 
SHARE

PRINT THIS DATA

[ ← Previous Day ]
WEATHER ALMANAC - JANUARY 23, 2013
[ Next Day → ]
[ °C ]   °F
Weather ElementAverageHighLow
Temperature54.2 °F64 °F (1:56 pm)46 °F (1:56 am)
Dewpoint41.3 °F48 °F (10:56 pm)37 °F (1:56 am)
Humidity63.7 %83 % (10:56 pm)37 % (1:56 pm)
Barometer30.04 in30.09 in (5:56 pm)29.99 in (11:56 am)
Wind Speed1.6 mph9.2 mph (12:56 pm)
Weather ElementAverage
Visibility10 mi
Wind DirectionNNE (35.5 °)

Weather ElementTotal
Precipitation---
Heating Degree Days10 (Base 65)
Growing Degree Days5 (Base 50)
Averaged from 22 records on January 23, 2013
WEATHER CONDITIONS BREAKOUT
WIND DIRECTION BREAKOUT
WEATHER BY HOUR - JANUARY 23, 2013
[ °C ]   °F
Local TimeTemperatureDewpointHumidityBarometerVisibilityWind DirectionWind SpeedGust SpeedPrecipitationEventsConditions
1:56 AM46.0 °F37.0 °F71 %30.04 in10.0 miCalmClear
2:56 AM46.9 °F37.9 °F71 %30.03 in10.0 miCalmClear
3:56 AM46.0 °F37.9 °F73 %30.01 in10.0 miCalmClear
4:56 AM46.9 °F37.9 °F71 %30.01 in10.0 miCalmClear
5:56 AM46.9 °F39.9 °F77 %30.01 in10.0 miCalmClear
7:56 AM48.0 °F39.9 °F74 %30.05 in10.0 miCalmScattered Clouds
8:56 AM53.1 °F41.0 °F64 %30.06 in10.0 miESE (110°)3.5 mphScattered Clouds
9:56 AM54.0 °F42.1 °F64 %30.06 in10.0 miCalmOvercast
10:56 AM57.0 °F42.1 °F57 %30.02 in10.0 miCalmOvercast
11:56 AM59.0 °F39.9 °F49 %29.99 in10.0 miENE (60°)3.5 mphMostly Cloudy
12:56 PM63.0 °F37.9 °F40 %30.00 in10.0 miNorth (10°)9.2 mphOvercast
1:56 PM64.0 °F37.0 °F37 %30.03 in10.0 miSouth (190°)5.8 mphOvercast
2:56 PM63.0 °F39.0 °F41 %30.03 in10.0 miCalmOvercast
3:56 PM62.1 °F39.0 °F43 %30.04 in10.0 miCalmOvercast
4:56 PM60.1 °F39.9 °F47 %30.07 in10.0 miSouth (190°)3.5 mphOvercast
5:56 PM57.0 °F44.1 °F62 %30.09 in10.0 miSouth (190°)6.9 mphOvercast
6:56 PM55.0 °F45.0 °F69 %30.06 in10.0 miNNE (30°)3.5 mphOvercast
7:56 PM54.0 °F45.0 °F72 %30.06 in10.0 miCalmMostly Cloudy
8:56 PM52.0 °F45.0 °F77 %30.04 in10.0 miCalmOvercast
9:56 PM52.0 °F46.0 °F80 %30.03 in10.0 miCalm0.00 inOvercast
10:56 PM53.1 °F48.0 °F83 %30.03 in10.0 miCalm0.00 inOvercast
11:56 PM53.1 °F46.9 °F80 %30.05 in10.0 miCalmOvercast
Hourly data recorded from KSBP, located miles away from Serrano, California







STORIES FROM OUR PARTNERS